Volver al catálogo

THORAD DELTA 1 DEB

LostSSO
NORAD 42626·DEBRIS·🇺🇸 United States

Lanzado Nov 15, 1974 desde Vandenberg Space Force Base

Loading…

Próximos Pases (próximas 24 horas)

TLE

ObsoletoSource: Space-Track

Época: Sep 19, 2025, 17:09 UTC

1 42626U 74089GT  25262.71493641  .00000030  00000-0  42428-3 0  9996
2 42626 101.7164 229.5669 0124679  74.5538 286.9270 12.59061206544247

Sigue THORAD DELTA 1 DEB en tiempo real con AllMySat

Download on the App Store